Weather History for Truckee-Tahoe, CA

Change the Weather History Date:

Wednesday, January 2, 2013

  Actual Average Record
Temperature  
Mean Temperature 7 °F -  
Max Temperature 23 °F 36 °F 57 °F (2012)
Min Temperature -9 °F 11 °F -12 °F (1952)
Degree Days  
Heating Degree Days 58    
Moisture  
Dew Point 0 °F    
Average Humidity 82    
Maximum Humidity 93    
Minimum Humidity 59    
Precipitation  
Precipitation 0.00 in - - ()
Snow  
Snow 0.00 in - - ()
Snow Depth 26.00 in    
Sea Level Pressure  
Sea Level Pressure 30.29 in    
Wind  
Wind Speed 1 mph (South)    
Max Wind Speed 4 mph    
Max Gust Speed -    
Visibility 6 miles    
Events Fog , Snow    
Averages and records for this station are not official NWS values.
T = Trace of Precipitation, MM = Missing Value Source: NWS Daily Summary

Daily Weather History Graph

Daily Weather History Graph

Search for Another Location

Airport:

Trip Planner

Search our weather history database for the weather conditions in past years. The results will help you decide how hot, cold, wet, or windy it might be!

Date:

Astronomy

Jan. 02, 2013 Rise Set
Actual Time 7:20 AM PST 4:49 PM PST
Civil Twilight 6:50 AM PST 5:19 PM PST
Nautical Twilight 6:17 AM PST 5:52 PM PST
Astronomical Twilight 5:44 AM PST 6:25 PM PST
Moon 10:24 PM PST (1/2) 10:06 AM PST (1/2)
Length of Visible Light 10h 28m
Length of Day
9h 28m
Waning Gibbous, 74% of the Moon is Illuminated
Jan 2
Waning Gibbous
Jan 4
Last Quarter
Jan 11
New
Jan 18
First Quarter
Jan 26
Full

Hourly Weather History & Observations

Time (PST) Temp. Windchill Dew Point Humidity Pressure Visibility Wind Dir Wind Speed Gust Speed Precip Events Conditions
12:15 AM -0.4 °F - -4.0 °F 85% 30.34 in 10.0 mi Calm Calm - N/A   Clear
12:35 AM -2.2 °F - -7.6 °F 78% 30.36 in 9.0 mi Calm Calm - N/A   Clear
12:55 AM -2.2 °F - -7.6 °F 78% 30.36 in 9.0 mi Calm Calm - N/A   Clear
1:15 AM -0.4 °F - -5.8 °F 78% 30.37 in 9.0 mi Calm Calm - N/A   Clear
1:35 AM -0.4 °F - -5.8 °F 78% 30.36 in 4.0 mi Calm Calm - N/A   Haze
1:55 AM -0.4 °F -8.3 °F -4.0 °F 85% 30.36 in 7.0 mi SE 3.5 mph - N/A   Clear
2:15 AM -4.0 °F - -9.4 °F 78% 30.36 in 10.0 mi Calm Calm - N/A   Clear
2:35 AM -2.2 °F - -5.8 °F 85% 30.36 in 10.0 mi Calm Calm - N/A   Unknown
2:55 AM -2.2 °F - -7.6 °F 78% 30.35 in 10.0 mi Calm Calm - N/A   Unknown
3:15 AM -5.8 °F - -11.2 °F 77% 30.34 in 10.0 mi Calm Calm - N/A   Clear
3:35 AM -4.0 °F - -9.4 °F 78% 30.33 in 0.5 mi Calm Calm - N/A   Haze
3:55 AM -5.8 °F - -11.2 °F 77% 30.33 in 0.2 mi Calm Calm - N/A   Haze
4:15 AM -4.0 °F -12.4 °F -9.4 °F 78% 30.32 in 0.2 mi South 3.5 mph - N/A   Haze
4:35 AM -5.8 °F -14.5 °F -11.2 °F 77% 30.32 in 0.2 mi ESE 3.5 mph - N/A   Haze
4:55 AM -9.4 °F -18.6 °F -13.0 °F 84% 30.32 in 0.2 mi SW 3.5 mph - N/A   Haze
5:15 AM -4.0 °F -12.4 °F -9.4 °F 78% 30.32 in 1.5 mi SW 3.5 mph - N/A   Clear
5:35 AM -4.0 °F - -9.4 °F 78% 30.32 in 2.0 mi Calm Calm - N/A   Haze
6:50 AM -9.4 °F - -14.8 °F 77% 30.32 in 10.0 mi Calm Calm - N/A   Clear
7:51 AM -5.8 °F - -11.2 °F 77% 30.32 in 10.0 mi Calm Calm - N/A   Scattered Clouds
8:55 AM -2.2 °F -10.4 °F -7.6 °F 78% 30.33 in 10.0 mi ENE 3.5 mph - N/A   Scattered Clouds
9:50 AM 1.4 °F - -2.2 °F 85% 30.33 in 10.0 mi Calm Calm - N/A   Partly Cloudy
10:50 AM 10.4 °F - 6.8 °F 85% 30.30 in 10.0 mi Calm Calm - N/A   Clear
11:55 AM 14.0 °F 8.2 °F 12.2 °F 93% 30.27 in 10.0 mi ENE 3.5 mph - N/A   Clear
12:50 PM 14.0 °F - 10.4 °F 86% 30.25 in 10.0 mi Calm Calm - N/A   Clear
1:50 PM 21.2 °F - 12.2 °F 68% 30.24 in 10.0 mi Calm Calm - N/A   Clear
2:55 PM 23.0 °F - 10.4 °F 59% 30.24 in 10.0 mi Calm Calm - N/A   Clear
3:50 PM 23.0 °F - 10.4 °F 59% 30.24 in 10.0 mi Calm Calm - N/A   Clear
4:45 PM 17.6 °F - 10.4 °F 73% 30.25 in 10.0 mi Calm Calm - N/A   Clear
4:55 PM 17.6 °F - 10.4 °F 73% 30.25 in 10.0 mi Calm Calm - N/A Snow Light Snow
5:15 PM 19.4 °F - 10.4 °F 68% 30.25 in 10.0 mi Calm Calm - N/A Snow Light Snow
5:35 PM 19.4 °F - 10.4 °F 68% 30.26 in 10.0 mi Calm Calm - N/A Snow Light Snow
5:55 PM 12.2 °F 6.1 °F 10.4 °F 92% 30.26 in 10.0 mi SW 3.5 mph - N/A Snow Light Snow
6:15 PM 14.0 °F - 12.2 °F 93% 30.27 in 10.0 mi Calm Calm - N/A Snow Light Snow
6:35 PM 14.0 °F - 10.4 °F 86% 30.27 in 1.0 mi Calm Calm - N/A   Clear
6:55 PM 10.4 °F - 8.6 °F 92% 30.28 in 7.0 mi Calm Calm - N/A   Clear
7:15 PM 10.4 °F 4.0 °F 8.6 °F 92% 30.28 in 5.0 mi South 3.5 mph - N/A   Clear
7:35 PM 10.4 °F - 8.6 °F 92% 30.28 in 5.0 mi Calm Calm - N/A   Clear
7:55 PM 8.6 °F - 5.0 °F 85% 30.28 in 1.2 mi Calm Calm - N/A   Clear
8:15 PM 6.8 °F - 5.0 °F 92% 30.28 in 8.0 mi Calm Calm - N/A   Clear
8:35 PM 6.8 °F - 5.0 °F 92% 30.27 in 1.2 mi Calm Calm - N/A   Clear
8:55 PM 8.6 °F - 5.0 °F 85% 30.27 in 0.2 mi Calm Calm - N/A Fog Light Freezing Fog
9:15 PM 6.8 °F - 5.0 °F 92% 30.26 in 3.0 mi Calm Calm - N/A   Clear
9:35 PM 3.2 °F - -0.4 °F 85% 30.27 in 4.0 mi Calm Calm - N/A   Clear
9:55 PM 5.0 °F - 1.4 °F 85% 30.26 in 0.5 mi Calm Calm - N/A Fog Light Freezing Fog
10:15 PM 5.0 °F - 1.4 °F 85% 30.26 in 0.2 mi Calm Calm - N/A Fog Light Freezing Fog
10:35 PM -0.4 °F - -2.2 °F 92% 30.26 in 1.0 mi Calm Calm - N/A   Clear
10:55 PM 5.0 °F - -0.4 °F 78% 30.26 in 4.0 mi Calm Calm - N/A   Clear
11:15 PM 1.4 °F -6.2 °F -2.2 °F 85% 30.25 in 0.2 mi SSW 3.5 mph - N/A Fog Light Freezing Fog
11:35 PM 1.4 °F - -2.2 °F 85% 30.25 in 10.0 mi Calm Calm - N/A   Clear
11:55 PM -0.4 °F - -2.2 °F 92% 30.25 in 1.0 mi Calm Calm - N/A   Overcast